Regional Weather Roundup
Issued by NWS

Home | Current Version | Previous Version | Text Only | Print | Product List | Glossary Off
Versions: 1 2 3 4 5 6 7 8 9 10 11 12 13 14 15 16 17 18 19 20 21 22 23 24 25 26 27 28

000
ASUS45 KTFX 220410
RWRMT
MONTANA REGIONAL WEATHER ROUNDUP
NATIONAL WEATHER SERVICE GREAT FALLS MT
1000 PM MDT FRI JUL 21 2017

NOTE: "FAIR" INDICATES FEW OR NO CLOUDS BELOW 12000 FEET WITH NO
SIGNIFICANT WEATHER AND/OR OBSTRUCTIONS TO VISIBILITY.

MTZ001>007-043-220500-
WEST OF THE DIVIDE

CITY           SKY/WX    TMP DP  RH WIND       PRES   REMARKS
KALISPELL      PTCLDY    64  38  38 CALM      30.07R
MISSOULA       CLEAR     71  31  22 NW5       30.09R
BUTTE          CLEAR     70  25  18 N12       30.20R
MULLAN PASS    CLEAR     55  35  47 VRB5      30.25S
ANACONDA         N/A     72  18  13 W10G17    30.16R
DEER LODGE       N/A     66  32  28 NW9       30.18R
EUREKA           N/A     64  41  42 MISG      30.07R
HAMILTON         N/A     73  34  23 E5        30.12R
LIBBY            N/A     70  39  32 S3        30.07R
$$

MTZ008-052>055-220500-
SOUTHWEST MONTANA

CITY           SKY/WX    TMP DP  RH WIND       PRES   REMARKS
BOZEMAN        CLEAR     64  39  39 N7        30.10R
DILLON         CLEAR     65  35  33 NE13      30.13R
W YELLOWSTONE  CLEAR     64  32  29 CALM      30.24R
ENNIS          CLEAR     70  25  18 NE13      30.18R
THREE FORKS      N/A     72  33  23 CALM      30.09R
TWIN BRIDGES     N/A     75  24  15 N12       30.10
$$

MTZ009-010-012-014-046-048-049-054-220500-
EAST SLOPES AND CENTRAL MONTANA

CITY           SKY/WX    TMP DP  RH WIND       PRES   REMARKS
CUT BANK       MOCLDY    65  40  39 N9        30.08R
GREAT FALLS    CLEAR     69  28  21 N5        30.06R
MALMSTROM AFB  CLEAR     72  29  20 N6        30.06R
HELENA         CLEAR     72  33  24 NW8       30.08R
CHOTEAU          N/A     63  32  31 CALM      30.09R
$$

MTZ011-013-016-021-045-047-050-051-220500-
NORTH CENTRAL MONTANA

CITY           SKY/WX    TMP DP  RH WIND       PRES   REMARKS
HAVRE          CLEAR     72  37  28 N10       29.98R
LEWISTOWN      CLEAR     69  25  19 N6        30.08R
N BAR RANCH      N/A     63  30  29 NW10      30.11R
CHINOOK          N/A     72  36  26 NW3       29.97R
$$

MTZ017>020-022>027-061-062-220500-
NORTHEAST MONTANA

CITY           SKY/WX    TMP DP  RH WIND       PRES   REMARKS
GLASGOW        CLEAR     72  31  22 N9        29.92R
JORDAN           N/A     71  25  17 N9        29.95R
SIDNEY         CLEAR     72  35  25 NW9       29.88R
WOLF POINT     CLEAR     68  29  23 NW3       29.89R
MALTA          CLEAR     73  34  23 N7        29.94R
PLENTYWOOD       N/A     66  46  48 CALM      29.90R
POPLAR           N/A     73  36  25 CALM      29.90R
$$

MTZ028>42-056>058-220500-
SOUTHCENTRAL AND SOUTHEAST MONTANA

CITY           SKY/WX    TMP DP  RH WIND       PRES   REMARKS
BAKER          CLEAR     68  35  29 CALM      29.96R
BILLINGS       PTCLDY    78  27  15 N12       30.01R
LIVINGSTON     CLEAR     72  32  23 CALM      30.10R
MILES CITY     CLOUDY    76  25  15 N8        29.94R
BIG TIMBER     CLEAR     73  30  20 W3        30.10R
FORSYTH          N/A     79  28  15 CALM      29.95R
LAUREL           N/A     77  28  16 NW3       30.01R
$$

REGIONAL REPORTS...DAKOTAS

CITY           SKY/WX    TMP DP  RH WIND       PRES   REMARKS
WILLISTON      CLEAR     76  46  34 N12       29.88R
MINOT          CLEAR     70  65  84 N7        29.82R
DICKINSON      PTCLDY    68  42  38 NW8       29.89R
BEACH          CLOUDY    64  39  39 MISG      29.97R
CROSBY           N/A     63  48  59 W8        29.87S
TIOGA            N/A     70  46  43 N10       29.89R
WATFORD CITY     N/A     64  48  55 N3        29.88R
BISMARCK       TSTM      71  69  93 NE13      29.84R FOG
GRAND FORKS    CLOUDY    73  72  96 E6        29.73F
FARGO          MOCLDY    71  68  90 SE8       29.77R
BUFFALO SD       N/A     76  39  26 N8        29.89R
RAPID CITY     PTCLDY    72  46  39 N14       29.95R
$$

REGIONAL REPORTS...WYOMING/IDAHO/WASHINGTON

CITY           SKY/WX    TMP DP  RH WIND       PRES   REMARKS
GILLETTE       CLEAR     64  37  36 SW5       30.05R
SHERIDAN       CLEAR     63  48  58 SW6       30.04R
BUFFALO WY     CLEAR     68  39  34 W8        30.12R
CODY           CLEAR     74  38  27 NW3       30.14R
YELLOWSTONE LA   N/A     51  40  65 CALM      30.36R
IDAHO FALLS    CLEAR     78  35  21 S12       30.08R
BOISE          CLEAR     83  38  20 N5        29.98R
SPOKANE        PTCLDY    74  36  25 W5        30.08S
$$

REGIONAL REPORTS...ALBERTA

CITY           SKY/WX    TMP DP  RH WIND       PRES   REMARKS
EDMONTON       CLEAR     61  59  94 W5        29.94R
CALGARY        PTCLDY    63  43  48 N7        30.05R
LETHBRIDGE     MOCLDY    57  46  67 SE6       30.04R
MEDICINE HAT   CLEAR     64  48  55 W5        29.99R
WATERTON GATE    N/A     64  37  36 W7          N/A
CARDSTON         N/A     61  46  59 SE3         N/A
MILK RIVER       N/A     61  43  51 E5          N/A
ONEFOUR          N/A     63  39  42 N16         N/A
$$

REGIONAL REPORTS...SASKATCHEWAN

CITY           SKY/WX    TMP DP  RH WIND       PRES   REMARKS
SWIFT CURRENT  CLOUDY    63  48  59 SW8       29.93R HAZE
REGINA         PTCLDY    64  55  72 NW12      29.88R
SASKATOON      MOCLDY    57  55  94 W6        29.90S
CYPRESS HILLS    N/A     57  39  51 NW7         N/A
VAL MARIE        N/A     63  37  39 N8          N/A
ROCKGLEN         N/A     61  45  55 NW6         N/A
ASSINIBOIA       N/A     57  55  94 W5          N/A
$$




USA.gov is the U.S. government's official web portal to all federal, state and local government web resources and services.